Location: Bjelajci
(45.0103°N, 16.1758°E)
Time: 04:32:30
(UTC+00:00)

IKONOS-2 - Pass Details

Date: 14 July 2020
Orbit: 600 x 611 km, 98.1° (Epoch: 11 August)

Event Time Altitude Azimuth Distance (km) Brightness Sun altitude
Exits shadow 00:48:09 37° 168° (SSE) 937 5.1 -19.0°
Maximum altitude 00:49:47 88° 253° (WSW) 610 4.4 -18.9°
Drops below altitude 10° 00:54:02 10° 346° (NNW) 1,955 7.8 -18.6°
Sets 00:56:13 0° 347° (NNW) 2,862 8.7 -18.4°
